Hourly Data Report for November 13, 2003

TORONTO CITY
ONTARIO

43°40'00.000" N
79°24'00.000" W
112.50 m
6158355
71508
XTO

Download Data

Hourly Data (November 2003)
Hourly Data Report for November 13, 2003
TIME
LST
Temp Definition
°C
Dew Point Definition
°C
Rel Hum Definition
%
Precip. Amount Definition
mm

Wind Dir Definition
10's deg

Wind Spd Definition
km/h
Visibility Definition
km
Stn Press Definition
kPa
Hmdx Definition


Wind Chill Definition


Weather Definition


00:00 8.7 4.9 77   LegendMM LegendMM LegendMM 97.83     LegendNANA
01:00 8.4 3.1 69   LegendMM LegendMM LegendMM 97.83     LegendNANA
02:00 7.9 2.0 66   LegendMM LegendMM LegendMM 97.82     LegendNANA
03:00 7.0 2.5 73   LegendMM LegendMM LegendMM 97.79     LegendNANA
04:00 5.4 1.2 74   LegendMM LegendMM LegendMM 97.80     LegendNANA
05:00 4.7 0.8 76   LegendMM LegendMM LegendMM 97.84     LegendNANA
06:00 4.2 -0.3 72   LegendMM LegendMM LegendMM 97.81     LegendNANA
07:00 3.9 -0.8 71   LegendMM LegendMM LegendMM 97.84     LegendNANA
08:00 3.6 -0.7 73   LegendMM LegendMM LegendMM 97.93     LegendNANA
09:00 3.8 -1.1 70   LegendMM LegendMM LegendMM 97.92     LegendNANA
10:00 3.7 -1.0 71   LegendMM LegendMM LegendMM 97.97     LegendNANA
11:00 2.8 1.0 88   LegendMM LegendMM LegendMM 98.20     LegendNANA
12:00 1.9 0.4 90   LegendMM LegendMM LegendMM 98.40     LegendNANA
13:00 1.7 0.6 92   LegendMM LegendMM LegendMM 98.61     LegendNANA
14:00 1.1 -0.4 90   LegendMM LegendMM LegendMM 98.87     LegendNANA
15:00 0.7 -1.3 86   LegendMM LegendMM LegendMM 99.10     LegendNANA
16:00 0.6 -2.5 80   LegendMM LegendMM LegendMM 99.29     LegendNANA
17:00 0.2 -3.8 74   LegendMM LegendMM LegendMM 99.45     LegendNANA
18:00 1.0 -4.9 65   LegendMM LegendMM LegendMM 99.62     LegendNANA
19:00 0.6 -5.3 65   LegendMM LegendMM LegendMM 99.73     LegendNANA
20:00 0.5 -6.9 58   LegendMM LegendMM LegendMM 99.84     LegendNANA
21:00 0.2 -7.0 58   LegendMM LegendMM LegendMM 99.90     LegendNANA
22:00 -0.5 -7.8 58   LegendMM LegendMM LegendMM 99.98     LegendNANA
23:00 -0.7 -8.7 55   LegendMM LegendMM LegendMM 99.98     LegendNANA

Notes on Data Quality.

Legend

  • E = Estimated
  • M = Missing
  • NA = Not Available*
  • [empty] = Indicates an unobserved value
Date modified: